252  
ASUS41 KBGM 191910  
RWRBGM  
 
REGIONAL WEATHER ROUNDUP  
NATIONAL WEATHER SERVICE BINGHAMTON NY  
300 PM EDT THU OCT 19 2017  
 
NOTE: "FAIR" INDICATES FEW OR NO CLOUDS BELOW 12,000 FEET WITH NO  
SIGNIFICANT WEATHER AND/OR S TO VISIBILITY
.  
 
* = STATION(S) THAT DOES NOT REPORT PRECIPITATION, SUCH AS RAIN,  
SNOW, ETC, ALSO NO THUNDER OR FOG.
 
 
NYZ009-015>018-022>025-036-037-044>046-055>057-062-192000   
..CENTRAL NEW YORK
 
 
 
CITY SKY/WX TMP DP RH WIND PRES REMARKS
 
BINGHAMTON FAIR 67 38 34 SW15 30.06F  
CORTLAND FAIR 70 41 35 SW13G20 30.03F  
DANSVILLE FAIR 74 40 29 SW10G21 30.02F  
ELMIRA FAIR 73 42 32 SW12 30.03F  
SENECA FALLS CLEAR 72 37 28 W12 30.00F  
ITHACA FAIR 71 42 35 SW16G22 30.03F  
HAMILTON SUNNY 72 39 30 SW10 30.02F  
HORNELL SUNNY 72 39 30 W10G21 30.07F  
MONTICELLO FAIR 70 39 32 SW10G21 30.10F  
ONEONTA SUNNY 68 N/A N/A SW13G21 30.04F  
PENN YAN FAIR 73 40 30 SW15 30.01F  
ROME FAIR 71 41 33 SW9 30.00F  
SIDNEY SUNNY 73 39 29 SW12G22 30.04F  
SYRACUSE NOT AVBL  

 
 
PAZ038>040-043-044-047-048-072-192000   
..NORTHEAST PENNSYLVANIA
 
 
 
CITY SKY/WX TMP DP RH WIND PRES REMARKS
 
HAZLETON FAIR 72 34 25 SW7G16 30.15F  
SCRANTON FAIR 71 42 35 W13 30.10F  

 

 
KEY  
WCI = WIND CHILL INDEX  
VSB = VISIBILITY  
HX = HEAT INDEX  

 
 
 
CLICK HERE TO GO TO PREVIOUS BULLETINS.

The Nexlab NY Page
The Nexlab PA Page Main Text Page